Volver al catálogo

STARLINK-35316

ActivoComunicacionesVLEO
NORAD 65742·PAYLOAD·🇺🇸 United States

Lanzado Sep 25, 2025 desde Cape Canaveral Space Force Station

Loading…

Próximos Pases (próximas 24 horas)

TLE

ActualizadoSource: CelesTrak SupGP

Época: Sep 14, 2026, 21:33 UTC

1 65742C 25216J   26257.89840278 -.00022530  00000+0 -66563-3 0  2577
2 65742  53.1577 171.6990 0001302  93.0832 326.5873 15.34402426    14

Sigue STARLINK-35316 en tiempo real con AllMySat

Download on the App Store